Time,TemperatureF,DewpointF,PressureIn,WindDirection,WindDirectionDegrees,WindSpeedMPH,WindSpeedGustMPH,Humidity,HourlyPrecipIn,Conditions,Clouds,dailyrainin,SoftwareType,DateUTC
2013-01-01 00:01:00,29.3,26.7,30.15,South,177,0.0,0.0,90,0.00,,,0.00,Wunderground v.1.15,2013-01-01 07:01:00,
2013-01-01 00:07:00,29.0,26.7,30.15,South,177,0.0,0.0,91,0.00,,,0.00,Wunderground v.1.15,2013-01-01 07:07:00,
2013-01-01 00:12:00,28.8,26.5,30.15,South,177,0.0,0.0,91,0.00,,,0.00,Wunderground v.1.15,2013-01-01 07:12:00,
2013-01-01 00:18:00,28.5,26.2,30.16,South,178,0.0,0.0,91,0.00,,,0.00,Wunderground v.1.15,2013-01-01 07:18:00,
2013-01-01 00:24:00,28.1,25.8,30.16,South,177,0.0,1.0,91,0.00,,,0.00,Wunderground v.1.15,2013-01-01 07:24:00,
2013-01-01 00:29:00,28.2,26.2,30.15,South,177,0.0,1.0,92,0.00,,,0.00,Wunderground v.1.15,2013-01-01 07:29:00,
2013-01-01 00:35:00,28.4,26.1,30.15,South,178,0.0,1.0,91,0.00,,,0.00,Wunderground v.1.15,2013-01-01 07:35:00,
2013-01-01 00:41:00,28.0,25.4,30.15,South,177,0.0,0.0,90,0.00,,,0.00,Wunderground v.1.15,2013-01-01 07:41:00,
2013-01-01 00:47:00,27.3,24.5,30.15,South,177,0.0,0.0,89,0.00,,,0.00,Wunderground v.1.15,2013-01-01 07:47:00,
2013-01-01 00:52:00,26.9,24.1,30.15,South,177,0.0,0.0,89,0.00,,,0.00,Wunderground v.1.15,2013-01-01 07:52:00,
2013-01-01 00:58:00,26.7,24.4,30.15,South,178,0.0,0.0,91,0.00,,,0.00,Wunderground v.1.15,2013-01-01 07:58:00,
2013-01-01 01:04:00,26.2,23.9,30.15,South,177,0.0,0.0,91,0.00,,,0.00,Wunderground v.1.15,2013-01-01 08:04:00,
2013-01-01 01:10:00,26.0,23.7,30.15,South,178,0.0,0.0,91,0.00,,,0.00,Wunderground v.1.15,2013-01-01 08:10:00,
2013-01-01 01:15:00,26.1,24.1,30.15,South,177,0.0,0.0,92,0.00,,,0.00,Wunderground v.1.15,2013-01-01 08:15:00,
2013-01-01 01:21:00,26.0,24.0,30.16,South,177,0.0,1.0,92,0.00,,,0.00,Wunderground v.1.15,2013-01-01 08:21:00,
2013-01-01 01:27:00,26.1,24.1,30.16,South,177,0.0,0.0,92,0.00,,,0.00,Wunderground v.1.15,2013-01-01 08:27:00,
2013-01-01 01:33:00,25.9,23.9,30.16,South,178,0.0,0.0,92,0.00,,,0.00,Wunderground v.1.15,2013-01-01 08:33:00,
2013-01-01 01:39:00,26.0,24.0,30.16,South,178,0.0,0.0,92,0.00,,,0.00,Wunderground v.1.15,2013-01-01 08:39:00,
2013-01-01 01:45:00,25.5,23.5,30.16,South,178,0.0,0.0,92,0.00,,,0.00,Wunderground v.1.15,2013-01-01 08:45:00,
2013-01-01 01:51:00,25.3,23.3,30.16,South,177,0.0,0.0,92,0.00,,,0.00,Wunderground v.1.15,2013-01-01 08:51:00,
2013-01-01 01:56:00,25.3,23.3,30.16,South,177,0.0,0.0,92,0.00,,,0.00,Wunderground v.1.15,2013-01-01 08:56:00,
2013-01-01 02:01:00,25.2,23.2,30.16,South,177,0.0,0.0,92,0.00,,,0.00,Wunderground v.1.15,2013-01-01 09:01:00,
2013-01-01 02:06:00,25.1,23.1,30.17,South,177,0.0,0.0,92,0.00,,,0.00,Wunderground v.1.15,2013-01-01 09:06:00,
2013-01-01 02:11:00,25.0,23.0,30.17,South,177,0.0,1.0,92,0.00,,,0.00,Wunderground v.1.15,2013-01-01 09:11:00,
2013-01-01 02:17:00,24.9,22.9,30.17,South,178,0.0,1.0,92,0.00,,,0.00,Wunderground v.1.15,2013-01-01 09:17:00,
2013-01-01 02:22:00,24.8,22.8,30.18,South,177,0.0,1.0,92,0.00,,,0.00,Wunderground v.1.15,2013-01-01 09:22:00,
2013-01-01 02:27:00,25.0,23.0,30.18,South,177,0.0,0.0,92,0.00,,,0.00,Wunderground v.1.15,2013-01-01 09:27:00,
2013-01-01 02:32:00,25.0,23.0,30.18,South,178,0.0,1.0,92,0.00,,,0.00,Wunderground v.1.15,2013-01-01 09:32:00,
2013-01-01 02:37:00,25.1,22.8,30.18,South,177,1.0,1.0,91,0.00,,,0.00,Wunderground v.1.15,2013-01-01 09:37:00,
2013-01-01 02:42:00,25.0,22.5,30.18,South,178,0.0,1.0,90,0.00,,,0.00,Wunderground v.1.15,2013-01-01 09:42:00,
2013-01-01 02:48:00,25.1,22.3,30.18,South,177,1.0,2.0,89,0.00,,,0.00,Wunderground v.1.15,2013-01-01 09:48:00,
2013-01-01 02:53:00,25.0,21.9,30.18,South,177,1.0,2.0,88,0.00,,,0.00,Wunderground v.1.15,2013-01-01 09:53:00,
2013-01-01 02:59:00,24.8,22.0,30.18,South,178,0.0,1.0,89,0.00,,,0.00,Wunderground v.1.15,2013-01-01 09:59:00,
2013-01-01 03:04:00,24.6,21.8,30.18,South,177,1.0,1.0,89,0.00,,,0.00,Wunderground v.1.15,2013-01-01 10:04:00,
2013-01-01 03:09:00,24.7,21.9,30.18,South,177,0.0,1.0,89,0.00,,,0.00,Wunderground v.1.15,2013-01-01 10:09:00,
2013-01-01 03:14:00,24.8,22.0,30.18,South,178,0.0,1.0,89,0.00,,,0.00,Wunderground v.1.15,2013-01-01 10:14:00,
2013-01-01 03:19:00,24.8,22.0,30.19,South,178,0.0,0.0,89,0.00,,,0.00,Wunderground v.1.15,2013-01-01 10:19:00,
2013-01-01 03:24:00,24.5,21.7,30.19,South,177,0.0,1.0,89,0.00,,,0.00,Wunderground v.1.15,2013-01-01 10:24:00,
2013-01-01 03:29:00,24.4,21.6,30.19,South,177,0.0,0.0,89,0.00,,,0.00,Wunderground v.1.15,2013-01-01 10:29:00,
2013-01-01 03:34:00,24.4,21.6,30.19,South,178,0.0,0.0,89,0.00,,,0.00,Wunderground v.1.15,2013-01-01 10:34:00,
2013-01-01 03:40:00,24.3,21.3,30.19,South,177,0.0,0.0,88,0.00,,,0.00,Wunderground v.1.15,2013-01-01 10:40:00,
2013-01-01 03:46:00,24.3,21.5,30.19,South,178,0.0,1.0,89,0.00,,,0.00,Wunderground v.1.15,2013-01-01 10:46:00,
2013-01-01 03:51:00,24.3,21.5,30.19,South,177,0.0,0.0,89,0.00,,,0.00,Wunderground v.1.15,2013-01-01 10:51:00,
2013-01-01 03:56:00,24.3,21.3,30.19,South,177,0.0,0.0,88,0.00,,,0.00,Wunderground v.1.15,2013-01-01 10:56:00,
2013-01-01 04:01:00,24.1,21.1,30.19,South,177,0.0,0.0,88,0.00,,,0.00,Wunderground v.1.15,2013-01-01 11:01:00,
2013-01-01 04:06:00,24.1,21.3,30.19,South,178,0.0,0.0,89,0.00,,,0.00,Wunderground v.1.15,2013-01-01 11:06:00,
2013-01-01 04:11:00,24.2,21.4,30.19,South,177,0.0,0.0,89,0.00,,,0.00,Wunderground v.1.15,2013-01-01 11:11:00,
2013-01-01 04:16:00,24.1,21.3,30.19,South,177,0.0,0.0,89,0.00,,,0.00,Wunderground v.1.15,2013-01-01 11:16:00,
2013-01-01 04:21:00,23.8,21.0,30.19,South,178,0.0,0.0,89,0.00,,,0.00,Wunderground v.1.15,2013-01-01 11:21:00,
2013-01-01 04:26:00,23.5,20.7,30.19,South,178,0.0,0.0,89,0.00,,,0.00,Wunderground v.1.15,2013-01-01 11:26:00,
2013-01-01 04:31:00,23.2,20.7,30.19,South,177,0.0,0.0,90,0.00,,,0.00,Wunderground v.1.15,2013-01-01 11:31:00,
2013-01-01 04:36:00,22.9,20.4,30.20,South,178,0.0,0.0,90,0.00,,,0.00,Wunderground v.1.15,2013-01-01 11:36:00,
2013-01-01 04:41:00,22.9,20.7,30.20,South,177,0.0,0.0,91,0.00,,,0.00,Wunderground v.1.15,2013-01-01 11:41:00,
2013-01-01 04:46:00,23.1,21.1,30.20,South,177,0.0,0.0,92,0.00,,,0.00,Wunderground v.1.15,2013-01-01 11:46:00,
2013-01-01 04:51:00,23.2,21.0,30.19,South,177,0.0,0.0,91,0.00,,,0.00,Wunderground v.1.15,2013-01-01 11:51:00,
2013-01-01 04:56:00,23.3,21.3,30.19,South,178,0.0,0.0,92,0.00,,,0.00,Wunderground v.1.15,2013-01-01 11:56:00,
2013-01-01 05:01:00,23.1,20.9,30.19,South,177,0.0,0.0,91,0.00,,,0.00,Wunderground v.1.15,2013-01-01 12:01:00,
2013-01-01 05:07:00,22.8,20.6,30.19,South,177,0.0,0.0,91,0.00,,,0.00,Wunderground v.1.15,2013-01-01 12:07:00,
2013-01-01 05:12:00,23.0,21.0,30.19,South,178,0.0,0.0,92,0.00,,,0.00,Wunderground v.1.15,2013-01-01 12:12:00,
2013-01-01 05:17:00,22.8,20.8,30.20,South,178,0.0,0.0,92,0.00,,,0.00,Wunderground v.1.15,2013-01-01 12:17:00,
2013-01-01 05:22:00,22.6,20.4,30.20,South,178,0.0,0.0,91,0.00,,,0.00,Wunderground v.1.15,2013-01-01 12:22:00,
2013-01-01 05:27:00,22.7,21.0,30.20,South,178,0.0,0.0,93,0.00,,,0.00,Wunderground v.1.15,2013-01-01 12:27:00,
2013-01-01 05:32:00,22.7,20.7,30.20,South,177,0.0,0.0,92,0.00,,,0.00,Wunderground v.1.15,2013-01-01 12:32:00,
2013-01-01 05:37:00,22.5,20.5,30.20,South,177,0.0,0.0,92,0.00,,,0.00,Wunderground v.1.15,2013-01-01 12:37:00,
2013-01-01 05:42:00,22.5,20.5,30.20,South,177,0.0,1.0,92,0.00,,,0.00,Wunderground v.1.15,2013-01-01 12:42:00,
2013-01-01 05:47:00,22.5,20.5,30.19,South,177,0.0,0.0,92,0.00,,,0.00,Wunderground v.1.15,2013-01-01 12:47:00,
2013-01-01 05:52:00,22.5,20.5,30.20,South,178,0.0,0.0,92,0.00,,,0.00,Wunderground v.1.15,2013-01-01 12:52:00,
2013-01-01 05:57:00,22.4,20.4,30.20,South,177,0.0,0.0,92,0.00,,,0.00,Wunderground v.1.15,2013-01-01 12:57:00,
2013-01-01 06:03:00,22.4,20.4,30.20,South,178,0.0,1.0,92,0.00,,,0.00,Wunderground v.1.15,2013-01-01 13:03:00,
2013-01-01 06:08:00,22.5,20.8,30.20,South,177,0.0,0.0,93,0.00,,,0.00,Wunderground v.1.15,2013-01-01 13:08:00,
2013-01-01 06:13:00,23.0,21.3,30.20,South,177,0.0,0.0,93,0.00,,,0.00,Wunderground v.1.15,2013-01-01 13:13:00,
2013-01-01 06:18:00,23.1,21.1,30.20,South,178,0.0,0.0,92,0.00,,,0.00,Wunderground v.1.15,2013-01-01 13:18:00,
2013-01-01 06:23:00,23.1,21.1,30.21,South,178,0.0,0.0,92,0.00,,,0.00,Wunderground v.1.15,2013-01-01 13:23:00,
2013-01-01 06:28:00,23.1,20.9,30.21,South,177,0.0,0.0,91,0.00,,,0.00,Wunderground v.1.15,2013-01-01 13:28:00,
2013-01-01 06:33:00,22.6,20.1,30.21,South,177,1.0,1.0,90,0.00,,,0.00,Wunderground v.1.15,2013-01-01 13:33:00,
2013-01-01 06:38:00,22.3,19.8,30.22,South,178,1.0,1.0,90,0.00,,,0.00,Wunderground v.1.15,2013-01-01 13:38:00,
2013-01-01 06:43:00,22.3,20.1,30.22,South,177,1.0,1.0,91,0.00,,,0.00,Wunderground v.1.15,2013-01-01 13:43:00,
2013-01-01 06:48:00,22.4,19.9,30.22,South,178,1.0,1.0,90,0.00,,,0.00,Wunderground v.1.15,2013-01-01 13:48:00,
2013-01-01 06:53:00,22.1,19.4,30.22,South,178,2.0,2.0,89,0.00,,,0.00,Wunderground v.1.15,2013-01-01 13:53:00,
2013-01-01 06:58:00,22.0,19.3,30.22,South,178,0.0,1.0,89,0.00,,,0.00,Wunderground v.1.15,2013-01-01 13:58:00,
2013-01-01 07:03:00,22.1,19.6,30.22,South,177,1.0,1.0,90,0.00,,,0.00,Wunderground v.1.15,2013-01-01 14:03:00,
2013-01-01 07:08:00,22.3,19.8,30.23,South,177,0.0,1.0,90,0.00,,,0.00,Wunderground v.1.15,2013-01-01 14:08:00,
2013-01-01 07:13:00,22.5,20.0,30.23,South,178,1.0,1.0,90,0.00,,,0.00,Wunderground v.1.15,2013-01-01 14:13:00,
2013-01-01 07:19:00,22.4,19.6,30.23,South,177,0.0,0.0,89,0.00,,,0.00,Wunderground v.1.15,2013-01-01 14:19:00,
2013-01-01 07:24:00,22.4,19.9,30.23,South,177,0.0,0.0,90,0.00,,,0.00,Wunderground v.1.15,2013-01-01 14:24:00,
2013-01-01 07:29:00,22.1,19.4,30.23,South,177,0.0,1.0,89,0.00,,,0.00,Wunderground v.1.15,2013-01-01 14:29:00,
2013-01-01 07:34:00,22.2,19.7,30.24,South,178,0.0,2.0,90,0.00,,,0.00,Wunderground v.1.15,2013-01-01 14:34:00,
2013-01-01 07:39:00,22.1,19.4,30.24,South,178,0.0,0.0,89,0.00,,,0.00,Wunderground v.1.15,2013-01-01 14:39:00,
2013-01-01 07:44:00,22.0,19.5,30.24,South,177,0.0,0.0,90,0.00,,,0.00,Wunderground v.1.15,2013-01-01 14:44:00,
2013-01-01 07:49:00,21.8,19.3,30.24,South,177,0.0,0.0,90,0.00,,,0.00,Wunderground v.1.15,2013-01-01 14:49:00,
2013-01-01 07:54:00,21.7,19.2,30.24,South,177,0.0,1.0,90,0.00,,,0.00,Wunderground v.1.15,2013-01-01 14:54:00,
2013-01-01 07:59:00,21.9,19.4,30.24,South,177,0.0,0.0,90,0.00,,,0.00,Wunderground v.1.15,2013-01-01 14:59:00,
2013-01-01 08:05:00,22.3,20.1,30.25,South,177,0.0,0.0,91,0.00,,,0.00,Wunderground v.1.15,2013-01-01 15:05:00,
2013-01-01 08:10:00,22.9,20.9,30.25,South,177,0.0,0.0,92,0.00,,,0.00,Wunderground v.1.15,2013-01-01 15:10:00,
2013-01-01 08:15:00,23.6,21.4,30.24,South,178,0.0,1.0,91,0.00,,,0.00,Wunderground v.1.15,2013-01-01 15:15:00,
2013-01-01 08:21:00,24.4,21.9,30.24,South,177,0.0,1.0,90,0.00,,,0.00,Wunderground v.1.15,2013-01-01 15:21:00,
2013-01-01 08:26:00,25.1,22.6,30.24,South,177,0.0,1.0,90,0.00,,,0.00,Wunderground v.1.15,2013-01-01 15:26:00,
2013-01-01 08:31:00,25.9,23.4,30.24,South,178,0.0,0.0,90,0.00,,,0.00,Wunderground v.1.15,2013-01-01 15:31:00,
2013-01-01 08:37:00,26.7,23.6,30.25,South,177,0.0,0.0,88,0.00,,,0.00,Wunderground v.1.15,2013-01-01 15:37:00,
2013-01-01 08:42:00,27.2,23.8,30.25,South,178,1.0,1.0,87,0.00,,,0.00,Wunderground v.1.15,2013-01-01 15:42:00,
2013-01-01 08:47:00,27.5,23.3,30.25,South,177,0.0,1.0,84,0.00,,,0.00,Wunderground v.1.15,2013-01-01 15:47:00,
2013-01-01 08:52:00,27.6,23.1,30.25,South,177,0.0,2.0,83,0.00,,,0.00,Wunderground v.1.15,2013-01-01 15:52:00,
2013-01-01 08:58:00,27.8,23.0,30.25,South,177,0.0,0.0,82,0.00,,,0.00,Wunderground v.1.15,2013-01-01 15:58:00,
2013-01-01 09:03:00,27.8,22.1,30.25,South,177,1.0,1.0,79,0.00,,,0.00,Wunderground v.1.15,2013-01-01 16:03:00,
2013-01-01 09:08:00,27.8,22.1,30.25,South,177,0.0,0.0,79,0.00,,,0.00,Wunderground v.1.15,2013-01-01 16:08:00,
2013-01-01 09:13:00,27.9,22.2,30.25,South,177,0.0,0.0,79,0.00,,,0.00,Wunderground v.1.15,2013-01-01 16:13:00,
2013-01-01 09:18:00,27.8,22.4,30.26,South,177,0.0,0.0,80,0.00,,,0.00,Wunderground v.1.15,2013-01-01 16:18:00,
2013-01-01 09:23:00,27.8,22.1,30.26,South,177,0.0,0.0,79,0.00,,,0.00,Wunderground v.1.15,2013-01-01 16:23:00,
2013-01-01 09:29:00,27.8,22.7,30.26,South,177,0.0,0.0,81,0.00,,,0.00,Wunderground v.1.15,2013-01-01 16:29:00,
2013-01-01 09:34:00,28.1,23.0,30.26,South,177,1.0,1.0,81,0.00,,,0.00,Wunderground v.1.15,2013-01-01 16:34:00,
2013-01-01 09:39:00,28.3,22.6,30.27,South,177,0.0,0.0,79,0.00,,,0.00,Wunderground v.1.15,2013-01-01 16:39:00,
2013-01-01 09:44:00,28.4,22.4,30.27,South,177,0.0,0.0,78,0.00,,,0.00,Wunderground v.1.15,2013-01-01 16:44:00,
2013-01-01 09:49:00,28.6,22.6,30.27,South,178,0.0,0.0,78,0.00,,,0.00,Wunderground v.1.15,2013-01-01 16:49:00,
2013-01-01 09:54:00,28.8,22.5,30.27,South,177,0.0,0.0,77,0.00,,,0.00,Wunderground v.1.15,2013-01-01 16:54:00,
2013-01-01 10:00:00,29.3,23.0,30.27,South,177,1.0,1.0,77,0.00,,,0.00,Wunderground v.1.15,2013-01-01 17:00:00,
2013-01-01 10:05:00,29.8,23.2,30.27,South,177,0.0,1.0,76,0.00,,,0.00,Wunderground v.1.15,2013-01-01 17:05:00,
2013-01-01 10:10:00,30.3,22.7,30.27,South,177,0.0,2.0,73,0.00,,,0.00,Wunderground v.1.15,2013-01-01 17:10:00,
2013-01-01 10:16:00,30.9,23.9,30.27,South,177,0.0,2.0,75,0.00,,,0.00,Wunderground v.1.15,2013-01-01 17:16:00,
2013-01-01 10:21:00,31.3,23.3,30.27,South,178,1.0,2.0,72,0.00,,,0.00,Wunderground v.1.15,2013-01-01 17:21:00,
2013-01-01 10:26:00,31.7,23.7,30.27,South,177,1.0,2.0,72,0.00,,,0.00,Wunderground v.1.15,2013-01-01 17:26:00,
2013-01-01 10:31:00,32.1,24.1,30.27,South,177,0.0,2.0,72,0.00,,,0.00,Wunderground v.1.15,2013-01-01 17:31:00,
2013-01-01 10:36:00,32.6,24.2,30.27,South,177,0.0,2.0,71,0.00,,,0.00,Wunderground v.1.15,2013-01-01 17:36:00,
2013-01-01 10:41:00,33.0,24.6,30.27,South,177,0.0,1.0,71,0.00,,,0.00,Wunderground v.1.15,2013-01-01 17:41:00,
2013-01-01 10:46:00,33.5,24.8,30.27,South,177,1.0,3.0,70,0.00,,,0.00,Wunderground v.1.15,2013-01-01 17:46:00,
2013-01-01 10:52:00,34.1,24.6,30.26,South,177,1.0,2.0,68,0.00,,,0.00,Wunderground v.1.15,2013-01-01 17:52:00,
2013-01-01 10:57:00,34.3,25.2,30.26,South,177,1.0,1.0,69,0.00,,,0.00,Wunderground v.1.15,2013-01-01 17:57:00,
2013-01-01 11:02:00,34.7,25.2,30.26,South,177,0.0,2.0,68,0.00,,,0.00,Wunderground v.1.15,2013-01-01 18:02:00,
2013-01-01 11:07:00,35.1,25.6,30.26,South,177,1.0,1.0,68,0.00,,,0.00,Wunderground v.1.15,2013-01-01 18:07:00,
2013-01-01 11:12:00,35.3,25.1,30.25,South,177,1.0,3.0,66,0.00,,,0.00,Wunderground v.1.15,2013-01-01 18:12:00,
2013-01-01 11:17:00,35.6,25.7,30.25,South,177,0.0,1.0,67,0.00,,,0.00,Wunderground v.1.15,2013-01-01 18:17:00,
2013-01-01 11:22:00,36.1,25.8,30.25,South,177,2.0,2.0,66,0.00,,,0.00,Wunderground v.1.15,2013-01-01 18:22:00,
2013-01-01 11:28:00,36.3,26.0,30.24,South,177,0.0,1.0,66,0.00,,,0.00,Wunderground v.1.15,2013-01-01 18:28:00,
2013-01-01 11:33:00,36.7,26.0,30.24,South,177,0.0,2.0,65,0.00,,,0.00,Wunderground v.1.15,2013-01-01 18:33:00,
2013-01-01 11:38:00,37.0,25.9,30.24,South,177,0.0,1.0,64,0.00,,,0.00,Wunderground v.1.15,2013-01-01 18:38:00,
2013-01-01 11:43:00,37.3,25.8,30.23,South,177,2.0,2.0,63,0.00,,,0.00,Wunderground v.1.15,2013-01-01 18:43:00,
2013-01-01 11:48:00,37.6,26.5,30.23,South,177,2.0,2.0,64,0.00,,,0.00,Wunderground v.1.15,2013-01-01 18:48:00,
2013-01-01 11:53:00,37.5,26.4,30.22,South,177,0.0,3.0,64,0.00,,,0.00,Wunderground v.1.15,2013-01-01 18:53:00,
2013-01-01 11:58:00,38.0,26.9,30.22,South,177,0.0,2.0,64,0.00,,,0.00,Wunderground v.1.15,2013-01-01 18:58:00,
2013-01-01 12:03:00,38.5,27.0,30.22,South,177,1.0,3.0,63,0.00,,,0.00,Wunderground v.1.15,2013-01-01 19:03:00,
2013-01-01 12:08:00,38.2,26.3,30.21,South,177,0.0,1.0,62,0.00,,,0.00,Wunderground v.1.15,2013-01-01 19:08:00,
2013-01-01 12:13:00,38.4,26.1,30.21,South,177,2.0,3.0,61,0.00,,,0.00,Wunderground v.1.15,2013-01-01 19:13:00,
2013-01-01 12:19:00,38.5,26.6,30.20,South,177,0.0,3.0,62,0.00,,,0.00,Wunderground v.1.15,2013-01-01 19:19:00,
2013-01-01 12:25:00,38.7,26.0,30.20,South,177,0.0,3.0,60,0.00,,,0.00,Wunderground v.1.15,2013-01-01 19:25:00,
2013-01-01 12:30:00,39.1,26.0,30.20,South,178,1.0,2.0,59,0.00,,,0.00,Wunderground v.1.15,2013-01-01 19:30:00,
2013-01-01 12:35:00,39.1,25.6,30.19,South,177,0.0,2.0,58,0.00,,,0.00,Wunderground v.1.15,2013-01-01 19:35:00,
2013-01-01 12:41:00,39.3,26.6,30.19,South,177,1.0,2.0,60,0.00,,,0.00,Wunderground v.1.15,2013-01-01 19:41:00,
2013-01-01 12:46:00,40.2,27.0,30.19,South,177,0.0,2.0,59,0.00,,,0.00,Wunderground v.1.15,2013-01-01 19:46:00,
2013-01-01 12:51:00,40.8,27.6,30.18,South,177,2.0,3.0,59,0.00,,,0.00,Wunderground v.1.15,2013-01-01 19:51:00,
2013-01-01 12:56:00,41.2,26.2,30.18,South,177,1.0,4.0,55,0.00,,,0.00,Wunderground v.1.15,2013-01-01 19:56:00,
2013-01-01 13:01:00,41.3,26.8,30.18,South,177,0.0,3.0,56,0.00,,,0.00,Wunderground v.1.15,2013-01-01 20:01:00,
2013-01-01 13:07:00,41.6,25.3,30.17,South,177,1.0,1.0,52,0.00,,,0.00,Wunderground v.1.15,2013-01-01 20:07:00,
2013-01-01 13:12:00,41.4,25.1,30.17,South,177,0.0,3.0,52,0.00,,,0.00,Wunderground v.1.15,2013-01-01 20:12:00,
2013-01-01 13:17:00,41.7,25.8,30.17,South,177,2.0,2.0,53,0.00,,,0.00,Wunderground v.1.15,2013-01-01 20:17:00,
2013-01-01 13:22:00,42.1,26.2,30.17,South,177,2.0,3.0,53,0.00,,,0.00,Wunderground v.1.15,2013-01-01 20:22:00,
2013-01-01 13:27:00,42.1,25.3,30.17,South,177,1.0,1.0,51,0.00,,,0.00,Wunderground v.1.15,2013-01-01 20:27:00,
2013-01-01 13:32:00,42.3,25.9,30.16,South,177,0.0,2.0,52,0.00,,,0.00,Wunderground v.1.15,2013-01-01 20:32:00,
2013-01-01 13:37:00,42.3,25.9,30.16,South,177,1.0,1.0,52,0.00,,,0.00,Wunderground v.1.15,2013-01-01 20:37:00,
2013-01-01 13:43:00,42.9,26.0,30.16,South,177,0.0,3.0,51,0.00,,,0.00,Wunderground v.1.15,2013-01-01 20:43:00,
2013-01-01 13:48:00,43.3,25.4,30.16,South,177,2.0,2.0,49,0.00,,,0.00,Wunderground v.1.15,2013-01-01 20:48:00,
2013-01-01 13:53:00,43.4,25.5,30.16,South,177,3.0,4.0,49,0.00,,,0.00,Wunderground v.1.15,2013-01-01 20:53:00,
2013-01-01 13:59:00,43.6,25.2,30.16,South,177,1.0,1.0,48,0.00,,,0.00,Wunderground v.1.15,2013-01-01 20:59:00,
2013-01-01 14:04:00,43.7,24.8,30.16,South,177,1.0,4.0,47,0.00,,,0.00,Wunderground v.1.15,2013-01-01 21:04:00,
2013-01-01 14:10:00,43.6,24.7,30.16,South,177,1.0,4.0,47,0.00,,,0.00,Wunderground v.1.15,2013-01-01 21:10:00,
2013-01-01 14:15:00,43.3,24.4,30.16,South,178,1.0,4.0,47,0.00,,,0.00,Wunderground v.1.15,2013-01-01 21:15:00,
2013-01-01 14:20:00,43.2,24.3,30.16,South,177,1.0,4.0,47,0.00,,,0.00,Wunderground v.1.15,2013-01-01 21:20:00,
2013-01-01 14:26:00,43.5,24.1,30.16,South,177,0.0,4.0,46,0.00,,,0.00,Wunderground v.1.15,2013-01-01 21:26:00,
2013-01-01 14:32:00,44.1,24.6,30.16,South,177,1.0,3.0,46,0.00,,,0.00,Wunderground v.1.15,2013-01-01 21:32:00,
2013-01-01 14:38:00,44.2,24.7,30.16,South,177,0.0,2.0,46,0.00,,,0.00,Wunderground v.1.15,2013-01-01 21:38:00,
2013-01-01 14:43:00,44.6,24.5,30.15,South,177,2.0,2.0,45,0.00,,,0.00,Wunderground v.1.15,2013-01-01 21:43:00,
2013-01-01 14:48:00,44.6,24.5,30.15,South,177,1.0,3.0,45,0.00,,,0.00,Wunderground v.1.15,2013-01-01 21:48:00,
2013-01-01 14:53:00,44.5,23.9,30.15,South,177,0.0,3.0,44,0.00,,,0.00,Wunderground v.1.15,2013-01-01 21:53:00,
2013-01-01 14:58:00,44.8,24.2,30.15,South,177,0.0,1.0,44,0.00,,,0.00,Wunderground v.1.15,2013-01-01 21:58:00,
2013-01-01 15:04:00,45.5,24.8,30.15,South,177,1.0,2.0,44,0.00,,,0.00,Wunderground v.1.15,2013-01-01 22:04:00,
2013-01-01 15:09:00,45.6,24.4,30.15,South,177,1.0,2.0,43,0.00,,,0.00,Wunderground v.1.15,2013-01-01 22:09:00,
2013-01-01 15:14:00,45.6,23.8,30.15,South,178,0.0,3.0,42,0.00,,,0.00,Wunderground v.1.15,2013-01-01 22:14:00,
2013-01-01 15:19:00,45.7,23.3,30.15,South,177,1.0,3.0,41,0.00,,,0.00,Wunderground v.1.15,2013-01-01 22:19:00,
2013-01-01 15:24:00,45.9,24.1,30.15,South,177,1.0,3.0,42,0.00,,,0.00,Wunderground v.1.15,2013-01-01 22:24:00,
2013-01-01 15:29:00,46.0,23.6,30.15,South,178,3.0,3.0,41,0.00,,,0.00,Wunderground v.1.15,2013-01-01 22:29:00,
2013-01-01 15:34:00,46.1,23.1,30.15,South,177,1.0,3.0,40,0.00,,,0.00,Wunderground v.1.15,2013-01-01 22:34:00,
2013-01-01 15:39:00,46.3,23.3,30.15,South,177,0.0,3.0,40,0.00,,,0.00,Wunderground v.1.15,2013-01-01 22:39:00,
2013-01-01 15:45:00,46.4,23.4,30.15,South,177,1.0,3.0,40,0.00,,,0.00,Wunderground v.1.15,2013-01-01 22:45:00,
2013-01-01 15:50:00,46.3,23.3,30.15,South,177,1.0,2.0,40,0.00,,,0.00,Wunderground v.1.15,2013-01-01 22:50:00,
2013-01-01 15:55:00,46.1,22.5,30.15,South,177,0.0,2.0,39,0.00,,,0.00,Wunderground v.1.15,2013-01-01 22:55:00,
2013-01-01 16:00:00,45.9,22.3,30.15,South,177,1.0,2.0,39,0.00,,,0.00,Wunderground v.1.15,2013-01-01 23:00:00,
2013-01-01 16:05:00,46.0,23.6,30.14,South,177,1.0,2.0,41,0.00,,,0.00,Wunderground v.1.15,2013-01-01 23:05:00,
2013-01-01 16:10:00,46.1,21.9,30.14,South,177,0.0,0.0,38,0.00,,,0.00,Wunderground v.1.15,2013-01-01 23:10:00,
2013-01-01 16:15:00,46.8,22.5,30.14,South,177,0.0,1.0,38,0.00,,,0.00,Wunderground v.1.15,2013-01-01 23:15:00,
2013-01-01 16:20:00,46.7,22.4,30.14,South,177,0.0,0.0,38,0.00,,,0.00,Wunderground v.1.15,2013-01-01 23:20:00,
2013-01-01 16:25:00,46.8,21.9,30.14,South,177,0.0,1.0,37,0.00,,,0.00,Wunderground v.1.15,2013-01-01 23:25:00,
2013-01-01 16:30:00,46.6,22.3,30.14,South,177,0.0,0.0,38,0.00,,,0.00,Wunderground v.1.15,2013-01-01 23:30:00,
2013-01-01 16:35:00,46.2,22.0,30.14,South,177,1.0,1.0,38,0.00,,,0.00,Wunderground v.1.15,2013-01-01 23:35:00,
2013-01-01 16:41:00,44.6,22.3,30.13,South,177,0.0,1.0,41,0.00,,,0.00,Wunderground v.1.15,2013-01-01 23:41:00,
2013-01-01 16:46:00,43.4,21.8,30.13,South,177,0.0,1.0,42,0.00,,,0.00,Wunderground v.1.15,2013-01-01 23:46:00,
2013-01-01 16:51:00,42.4,22.5,30.13,South,177,1.0,1.0,45,0.00,,,0.00,Wunderground v.1.15,2013-01-01 23:51:00,
2013-01-01 16:56:00,41.5,24.7,30.13,South,177,0.0,1.0,51,0.00,,,0.00,Wunderground v.1.15,2013-01-01 23:56:00,
2013-01-01 17:02:00,40.2,24.9,30.13,South,177,1.0,1.0,54,0.00,,,0.00,Wunderground v.1.15,2013-01-02 00:02:00,
2013-01-01 17:07:00,39.5,25.1,30.13,South,177,1.0,1.0,56,0.00,,,0.00,Wunderground v.1.15,2013-01-02 00:07:00,
2013-01-01 17:12:00,38.9,24.5,30.13,South,177,1.0,1.0,56,0.00,,,0.00,Wunderground v.1.15,2013-01-02 00:12:00,
2013-01-01 17:18:00,38.4,24.9,30.14,South,177,1.0,1.0,58,0.00,,,0.00,Wunderground v.1.15,2013-01-02 00:18:00,
2013-01-01 17:23:00,38.2,24.3,30.14,South,177,1.0,2.0,57,0.00,,,0.00,Wunderground v.1.15,2013-01-02 00:23:00,
2013-01-01 17:28:00,37.9,24.4,30.14,South,177,1.0,1.0,58,0.00,,,0.00,Wunderground v.1.15,2013-01-02 00:28:00,
2013-01-01 17:33:00,37.7,23.8,30.15,South,177,0.0,2.0,57,0.00,,,0.00,Wunderground v.1.15,2013-01-02 00:33:00,
2013-01-01 17:38:00,37.5,24.5,30.15,South,177,0.0,0.0,59,0.00,,,0.00,Wunderground v.1.15,2013-01-02 00:38:00,
2013-01-01 17:43:00,37.1,24.5,30.15,South,177,0.0,2.0,60,0.00,,,0.00,Wunderground v.1.15,2013-01-02 00:43:00,
2013-01-01 17:49:00,36.6,24.0,30.15,South,178,2.0,2.0,60,0.00,,,0.00,Wunderground v.1.15,2013-01-02 00:49:00,
2013-01-01 17:54:00,36.7,22.5,30.15,South,177,0.0,3.0,56,0.00,,,0.00,Wunderground v.1.15,2013-01-02 00:54:00,
2013-01-01 17:59:00,36.7,22.0,30.16,South,178,0.0,1.0,55,0.00,,,0.00,Wunderground v.1.15,2013-01-02 00:59:00,
2013-01-01 18:04:00,36.6,20.6,30.16,South,178,0.0,1.0,52,0.00,,,0.00,Wunderground v.1.15,2013-01-02 01:04:00,
2013-01-01 18:09:00,36.3,20.8,30.17,South,177,0.0,0.0,53,0.00,,,0.00,Wunderground v.1.15,2013-01-02 01:09:00,
2013-01-01 18:14:00,36.0,21.8,30.17,South,177,1.0,1.0,56,0.00,,,0.00,Wunderground v.1.15,2013-01-02 01:14:00,
2013-01-01 18:20:00,35.6,21.0,30.17,South,177,0.0,2.0,55,0.00,,,0.00,Wunderground v.1.15,2013-01-02 01:20:00,
2013-01-01 18:25:00,35.5,20.5,30.18,South,177,2.0,2.0,54,0.00,,,0.00,Wunderground v.1.15,2013-01-02 01:25:00,
2013-01-01 18:31:00,35.5,20.0,30.18,South,177,0.0,1.0,53,0.00,,,0.00,Wunderground v.1.15,2013-01-02 01:31:00,
2013-01-01 18:37:00,35.5,18.7,30.18,South,177,1.0,1.0,50,0.00,,,0.00,Wunderground v.1.15,2013-01-02 01:37:00,
2013-01-01 18:42:00,35.8,18.5,30.18,South,177,1.0,4.0,49,0.00,,,0.00,Wunderground v.1.15,2013-01-02 01:42:00,
2013-01-01 18:47:00,36.0,19.1,30.19,South,178,0.0,1.0,50,0.00,,,0.00,Wunderground v.1.15,2013-01-02 01:47:00,
2013-01-01 18:52:00,36.1,17.8,30.19,South,177,3.0,4.0,47,0.00,,,0.00,Wunderground v.1.15,2013-01-02 01:52:00,
2013-01-01 18:58:00,36.2,19.8,30.19,South,178,0.0,1.0,51,0.00,,,0.00,Wunderground v.1.15,2013-01-02 01:58:00,
2013-01-01 19:03:00,35.6,19.7,30.20,South,177,0.0,1.0,52,0.00,,,0.00,Wunderground v.1.15,2013-01-02 02:03:00,
2013-01-01 19:08:00,34.9,19.0,30.20,South,178,0.0,1.0,52,0.00,,,0.00,Wunderground v.1.15,2013-01-02 02:08:00,
2013-01-01 19:14:00,34.4,19.0,30.20,South,177,0.0,1.0,53,0.00,,,0.00,Wunderground v.1.15,2013-01-02 02:14:00,
2013-01-01 19:19:00,33.8,18.5,30.20,South,177,0.0,0.0,53,0.00,,,0.00,Wunderground v.1.15,2013-01-02 02:19:00,
2013-01-01 19:24:00,33.6,18.3,30.20,South,177,0.0,1.0,53,0.00,,,0.00,Wunderground v.1.15,2013-01-02 02:24:00,
2013-01-01 19:29:00,33.3,18.9,30.20,South,177,0.0,0.0,55,0.00,,,0.00,Wunderground v.1.15,2013-01-02 02:29:00,
2013-01-01 19:34:00,32.8,18.8,30.20,South,177,0.0,1.0,56,0.00,,,0.00,Wunderground v.1.15,2013-01-02 02:34:00,
2013-01-01 19:39:00,32.9,18.5,30.20,South,178,0.0,1.0,55,0.00,,,0.00,Wunderground v.1.15,2013-01-02 02:39:00,
2013-01-01 19:45:00,33.0,18.1,30.20,South,177,1.0,1.0,54,0.00,,,0.00,Wunderground v.1.15,2013-01-02 02:45:00,
2013-01-01 19:50:00,33.2,17.9,30.20,South,177,0.0,2.0,53,0.00,,,0.00,Wunderground v.1.15,2013-01-02 02:50:00,
2013-01-01 19:55:00,33.5,17.7,30.20,South,177,1.0,3.0,52,0.00,,,0.00,Wunderground v.1.15,2013-01-02 02:55:00,
2013-01-01 20:00:00,33.6,17.8,30.20,South,177,0.0,1.0,52,0.00,,,0.00,Wunderground v.1.15,2013-01-02 03:00:00,
2013-01-01 20:06:00,33.4,18.1,30.20,South,177,0.0,1.0,53,0.00,,,0.00,Wunderground v.1.15,2013-01-02 03:06:00,
2013-01-01 20:11:00,33.1,17.8,30.20,South,177,1.0,1.0,53,0.00,,,0.00,Wunderground v.1.15,2013-01-02 03:11:00,
2013-01-01 20:16:00,33.3,18.0,30.20,South,178,1.0,2.0,53,0.00,,,0.00,Wunderground v.1.15,2013-01-02 03:16:00,
2013-01-01 20:21:00,33.1,17.8,30.20,South,177,0.0,1.0,53,0.00,,,0.00,Wunderground v.1.15,2013-01-02 03:21:00,
2013-01-01 20:26:00,32.8,18.4,30.21,South,177,1.0,1.0,55,0.00,,,0.00,Wunderground v.1.15,2013-01-02 03:26:00,
2013-01-01 20:31:00,32.3,18.3,30.21,South,178,0.0,0.0,56,0.00,,,0.00,Wunderground v.1.15,2013-01-02 03:31:00,
2013-01-01 20:36:00,32.0,17.6,30.21,South,178,0.0,1.0,55,0.00,,,0.00,Wunderground v.1.15,2013-01-02 03:36:00,
2013-01-01 20:42:00,31.6,17.7,30.20,South,178,0.0,0.0,56,0.00,,,0.00,Wunderground v.1.15,2013-01-02 03:42:00,
2013-01-01 20:47:00,30.9,17.8,30.20,South,177,0.0,0.0,58,0.00,,,0.00,Wunderground v.1.15,2013-01-02 03:47:00,
2013-01-01 20:53:00,30.3,17.3,30.20,South,178,0.0,0.0,58,0.00,,,0.00,Wunderground v.1.15,2013-01-02 03:53:00,
2013-01-01 20:58:00,29.8,17.2,30.21,South,177,0.0,0.0,59,0.00,,,0.00,Wunderground v.1.15,2013-01-02 03:58:00,
2013-01-01 21:03:00,29.7,16.7,30.21,South,177,0.0,0.0,58,0.00,,,0.00,Wunderground v.1.15,2013-01-02 04:03:00,
2013-01-01 21:08:00,29.7,17.1,30.21,South,177,0.0,0.0,59,0.00,,,0.00,Wunderground v.1.15,2013-01-02 04:08:00,
2013-01-01 21:14:00,29.8,16.4,30.21,South,178,0.0,0.0,57,0.00,,,0.00,Wunderground v.1.15,2013-01-02 04:14:00,
2013-01-01 21:19:00,29.6,17.0,30.21,South,178,0.0,0.0,59,0.00,,,0.00,Wunderground v.1.15,2013-01-02 04:19:00,
2013-01-01 21:24:00,29.7,16.7,30.21,South,177,0.0,0.0,58,0.00,,,0.00,Wunderground v.1.15,2013-01-02 04:24:00,
2013-01-01 21:29:00,29.6,16.6,30.21,South,177,0.0,0.0,58,0.00,,,0.00,Wunderground v.1.15,2013-01-02 04:29:00,
2013-01-01 21:35:00,29.6,16.2,30.21,South,177,0.0,0.0,57,0.00,,,0.00,Wunderground v.1.15,2013-01-02 04:35:00,
2013-01-01 21:40:00,29.9,16.9,30.21,South,177,0.0,0.0,58,0.00,,,0.00,Wunderground v.1.15,2013-01-02 04:40:00,
2013-01-01 21:46:00,30.8,16.1,30.22,South,177,2.0,3.0,54,0.00,,,0.00,Wunderground v.1.15,2013-01-02 04:46:00,
2013-01-01 21:52:00,31.3,16.1,30.21,South,178,1.0,1.0,53,0.00,,,0.00,Wunderground v.1.15,2013-01-02 04:52:00,
2013-01-01 21:57:00,31.4,15.8,30.22,South,178,3.0,3.0,52,0.00,,,0.00,Wunderground v.1.15,2013-01-02 04:57:00,
2013-01-01 22:00:00,31.8,15.3,30.22,South,177,0.0,3.0,50,0.00,,,0.00,Wunderground v.1.15,2013-01-02 05:00:00,
2013-01-01 22:02:00,32.0,15.9,30.22,South,178,0.0,3.0,51,0.00,,,0.00,Wunderground v.1.15,2013-01-02 05:02:00,
2013-01-01 22:07:00,32.0,15.4,30.22,South,177,1.0,3.0,50,0.00,,,0.00,Wunderground v.1.15,2013-01-02 05:07:00,
2013-01-01 22:12:00,31.8,15.3,30.23,South,177,0.0,0.0,50,0.00,,,0.00,Wunderground v.1.15,2013-01-02 05:12:00,
2013-01-01 22:17:00,31.3,15.7,30.23,South,178,0.0,1.0,52,0.00,,,0.00,Wunderground v.1.15,2013-01-02 05:17:00,
2013-01-01 22:22:00,30.6,16.7,30.23,South,177,0.0,0.0,56,0.00,,,0.00,Wunderground v.1.15,2013-01-02 05:22:00,
2013-01-01 22:27:00,29.8,16.4,30.23,South,177,0.0,1.0,57,0.00,,,0.00,Wunderground v.1.15,2013-01-02 05:27:00,
2013-01-01 22:32:00,29.4,16.0,30.23,South,178,0.0,0.0,57,0.00,,,0.00,Wunderground v.1.15,2013-01-02 05:32:00,
2013-01-01 22:37:00,29.3,15.9,30.24,South,178,1.0,1.0,57,0.00,,,0.00,Wunderground v.1.15,2013-01-02 05:37:00,
2013-01-01 22:42:00,29.0,15.7,30.24,South,177,0.0,2.0,57,0.00,,,0.00,Wunderground v.1.15,2013-01-02 05:42:00,
2013-01-01 22:47:00,28.7,15.8,30.24,South,177,0.0,0.0,58,0.00,,,0.00,Wunderground v.1.15,2013-01-02 05:47:00,
2013-01-01 22:52:00,28.3,16.6,30.23,South,177,1.0,2.0,61,0.00,,,0.00,Wunderground v.1.15,2013-01-02 05:52:00,
2013-01-01 22:57:00,28.8,17.0,30.23,South,177,0.0,0.0,61,0.00,,,0.00,Wunderground v.1.15,2013-01-02 05:57:00,
2013-01-01 23:02:00,29.5,16.9,30.23,South,178,1.0,2.0,59,0.00,,,0.00,Wunderground v.1.15,2013-01-02 06:02:00,
2013-01-01 23:07:00,30.6,16.7,30.23,South,177,0.0,1.0,56,0.00,,,0.00,Wunderground v.1.15,2013-01-02 06:07:00,
2013-01-01 23:13:00,31.1,16.4,30.24,South,177,1.0,2.0,54,0.00,,,0.00,Wunderground v.1.15,2013-01-02 06:13:00,
2013-01-01 23:18:00,31.0,16.3,30.24,South,178,0.0,0.0,54,0.00,,,0.00,Wunderground v.1.15,2013-01-02 06:18:00,
2013-01-01 23:23:00,30.7,16.4,30.24,South,177,0.0,1.0,55,0.00,,,0.00,Wunderground v.1.15,2013-01-02 06:23:00,
2013-01-01 23:28:00,30.6,16.3,30.24,South,177,0.0,1.0,55,0.00,,,0.00,Wunderground v.1.15,2013-01-02 06:28:00,
2013-01-01 23:33:00,30.7,16.4,30.24,South,177,1.0,2.0,55,0.00,,,0.00,Wunderground v.1.15,2013-01-02 06:33:00,
2013-01-01 23:38:00,31.2,16.5,30.24,South,177,1.0,1.0,54,0.00,,,0.00,Wunderground v.1.15,2013-01-02 06:38:00,
2013-01-01 23:44:00,31.3,16.6,30.24,South,178,0.0,3.0,54,0.00,,,0.00,Wunderground v.1.15,2013-01-02 06:44:00,
2013-01-01 23:50:00,30.9,16.6,30.24,South,178,0.0,0.0,55,0.00,,,0.00,Wunderground v.1.15,2013-01-02 06:50:00,
2013-01-01 23:55:00,30.6,16.3,30.24,South,178,1.0,2.0,55,0.00,,,0.00,Wunderground v.1.15,2013-01-02 06:55:00,